DW6648 Weather Reports


time (UTC)temp
C
wind
direction
speed
KPH
gust
KPH
rain 1hr
cm
rain 24hr
cm
rain mn
cm
humidity
%
barometer
mb
20260510185816 13 41 0.0 0.0 0.00 0.00 0.00 61 1012.3
20260510184815 13 46 0.0 0.0 0.00 0.00 0.00 62 1012.4
20260510181815 13 29 0.0 0.0 0.00 0.00 0.00 59 1012.6
20260510175315 13 34 0.0 0.0 0.00 0.00 0.00 62 1012.6
20260510174815 13 57 0.0 0.0 0.00 0.00 0.00 62 1012.8
20260510174315 13 43 0.0 0.0 0.00 0.00 0.00 62 1012.8
20260510173814 13 67 0.0 0.0 0.00 0.00 0.00 61 1012.8
20260510172814 13 34 0.0 0.0 0.00 0.00 0.00 61 1012.7
20260510172314 14 37 0.0 0.0 0.00 0.00 0.00 61 1012.8
20260510170814 15 34 0.0 0.0 0.00 0.00 0.00 60 1012.8
20260510170313 15 38 0.0 0.0 0.00 0.00 0.00 60 1012.9
20260510165812 15 36 0.0 0.0 0.00 0.00 0.00 61 1012.9
20260510164813 15 39 0.0 0.0 0.00 0.00 0.00 60 1012.9
20260510163812 15 72 0.0 0.0 0.00 0.00 0.00 60 1013.0
20260510163313 15 79 0.0 0.0 0.00 0.00 0.00 60 1013.0
20260510162814 15 40 0.0 0.0 0.00 0.00 0.00 62 1013.1
20260510161812 15 69 0.0 0.0 0.00 0.00 0.00 61 1013.0
20260510160814 15 48 0.0 0.0 0.00 0.00 0.00 60 1013.1
20260510160312 15 52 0.0 0.0 0.00 0.00 0.00 60 1013.3
20260510155311 16 43 0.0 0.0 0.00 0.00 0.00 59 1013.3
20260510154812 16 47 0.0 0.0 0.00 0.00 0.00 59 1013.3
20260510153811 16 53 0.0 0.0 0.00 0.00 0.00 59 1013.4
20260510153311 16 44 0.0 0.0 0.00 0.00 0.00 60 1013.4
20260510152812 16 62 0.0 0.0 0.00 0.00 0.00 59 1013.5
20260510152311 16 44 0.0 0.0 0.00 0.00 0.00 60 1013.5
20260510151811 16 48 0.0 0.0 0.00 0.00 0.00 59 1013.5
20260510145310 15 43 0.0 0.0 0.00 0.00 0.00 60 1013.6
20260510144811 15 54 0.0 0.0 0.00 0.00 0.00 61 1013.5
20260510143810 15 60 0.0 0.0 0.00 0.00 0.00 61 1013.6
20260510143310 15 51 0.0 0.0 0.00 0.00 0.00 61 1013.7
20260510142310 16 59 0.0 0.0 0.00 0.00 0.00 59 1014.4
20260510141810 16 30 0.0 0.0 0.00 0.00 0.00 60 1013.8
20260510141310 15 39 0.0 0.0 0.00 0.00 0.00 61 1013.9
20260510140309 15 62 0.0 0.0 0.00 0.00 0.00 60 1014.1
20260510133310 16 57 0.0 0.0 0.00 0.00 0.00 59 1014.1
20260510132809 16 37 0.0 0.0 0.00 0.00 0.00 60 1014.1
20260510132309 16 44 0.0 0.0 0.00 0.00 0.00 59 1014.2
20260510131809 16 44 0.0 0.0 0.00 0.00 0.00 59 1014.2
20260510125809 16 59 0.0 0.0 0.00 0.00 0.00 59 1014.3
20260510125308 16 42 0.0 0.0 0.00 0.00 0.00 58 1014.3
20260510124309 16 52 0.0 0.0 0.00 0.00 0.00 58 1014.6
20260510123810 16 93 0.0 0.0 0.00 0.00 0.00 59 1014.3
20260510123308 16 54 0.0 0.0 0.00 0.00 0.00 59 1014.3
20260510122808 16 65 0.0 0.0 0.00 0.00 0.00 58 1014.5
20260510121809 16 40 0.0 0.0 0.00 0.00 0.00 59 1014.4
20260510120307 16 45 0.0 0.0 0.00 0.00 0.00 58 1014.6
20260510114808 15 32 0.0 0.0 0.00 0.00 0.00 60 1014.6
20260510114307 15 69 0.0 0.0 0.00 0.00 0.00 60 1014.8
20260510113308 15 55 0.0 0.0 0.00 0.00 0.00 59 1014.9
20260510112307 15 59 0.0 0.0 0.00 0.00 0.00 59 1015.0
20260510110806 15 37 0.0 0.0 0.00 0.00 0.00 60 1015.1
20260510110306 15 47 0.0 0.0 0.00 0.00 0.00 60 1015.2
20260510105307 15 56 0.0 0.0 0.00 0.00 0.00 60 1015.3
20260510104806 15 41 0.0 0.0 0.00 0.00 0.00 59 1015.3
20260510104306 15 82 0.0 0.0 0.00 0.00 0.00 61 1015.2
20260510103807 15 55 0.0 0.0 0.00 0.00 0.00 62 1015.3
20260510103306 14 49 0.0 0.0 0.00 0.00 0.00 62 1015.3
20260510102306 15 52 0.0 0.0 0.00 0.00 0.00 60 1015.4
20260510101305 15 46 0.0 0.0 0.00 0.00 0.00 61 1015.4
20260510095804 15 51 0.0 0.0 0.00 0.00 0.00 64 1015.6
20260510094805 14 67 0.0 0.0 0.00 0.00 0.00 64 1015.7
20260510094305 13 80 0.0 0.0 0.00 0.00 0.00 65 1015.5
20260510093804 13 57 0.0 0.0 0.00 0.00 0.00 66 1015.6
20260510093305 13 44 0.0 0.0 0.00 0.00 0.00 67 1015.8
20260510091805 12 45 0.0 0.0 0.00 0.00 0.00 70 1015.8
20260510091305 12 69 0.0 0.0 0.00 0.00 0.00 70 1015.8
20260510085336 11 49 0.0 0.0 0.00 0.00 0.00 73 1015.9
20260510083336 11 40 0.0 0.0 0.00 0.00 0.00 74 1016.0
20260510082835 11 42 0.0 0.0 0.00 0.00 0.00 74 1016.0
20260510081835 11 38 0.0 0.0 0.00 0.00 0.00 76 1016.0
20260510081335 11 43 0.0 0.0 0.00 0.00 0.00 76 1016.0
20260510080835 11 44 0.0 0.0 0.00 0.00 0.00 76 1016.0
20260510075335 10 35 0.0 0.0 0.00 0.00 0.00 76 1016.0
20260510074335 10 61 0.0 0.0 0.00 0.00 0.00 76 1015.9
20260510072335 10 68 0.0 0.0 0.00 0.00 0.00 77 1015.8
20260510071334 10 51 0.0 0.0 0.00 0.00 0.00 77 1015.7
20260510070834 10 46 0.0 0.0 0.00 0.00 0.00 77 1015.7
20260510070334 10 63 0.0 0.0 0.00 0.00 0.00 78 1015.6
20260510064834 10 48 0.0 0.0 0.00 0.00 0.00 79 1015.6
20260510064333 10 43 0.0 0.0 0.00 0.00 0.00 79 1015.5
20260510063334 10 56 0.0 0.0 0.00 0.00 0.00 80 1015.5
20260510062333 10 44 0.0 0.0 0.00 0.00 0.00 81 1015.6
20260510060333 9 50 0.0 0.0 0.00 0.00 0.00 81 1015.5
20260510055332 8 36 0.0 0.0 0.00 0.00 0.00 81 1015.5
20260510053832 8 64 0.0 0.0 0.00 0.00 0.00 80 1015.5
20260510052331 8 52 0.0 0.0 0.00 0.00 0.00 79 1015.5
20260510051832 9 60 0.0 0.0 0.00 0.00 0.00 79 1015.6
20260510051331 9 67 0.0 0.0 0.00 0.00 0.00 79 1015.5
20260510050832 9 67 0.0 0.0 0.00 0.00 0.00 79 1015.7
20260510050331 9 43 0.0 0.0 0.00 0.00 0.00 79 1015.5
20260510045330 9 49 0.0 0.0 0.00 0.00 0.00 79 1015.6
20260510044331 9 38 0.0 0.0 0.00 0.00 0.00 78 1015.5
20260510043831 9 43 0.0 0.0 0.00 0.00 0.00 78 1015.5
20260510042831 10 41 0.0 0.0 0.00 0.00 0.00 77 1015.5
20260510042330 10 37 0.0 0.0 0.00 0.00 0.00 77 1015.6
20260510041330 10 54 0.0 0.0 0.00 0.00 0.00 77 1015.6
20260510040330 10 39 0.0 0.0 0.00 0.00 0.00 75 1015.6
20260510035832 10 43 0.0 0.0 0.00 0.00 0.00 75 1015.7
20260510034830 10 49 0.0 0.0 0.00 0.00 0.00 75 1015.7
20260510034330 10 60 0.0 0.0 0.00 0.00 0.00 75 1015.8
20260510033330 10 51 0.0 0.0 0.00 0.00 0.00 74 1015.9
20260510030329 11 48 0.0 0.0 0.00 0.00 0.00 70 1016.1
20260510023829 11 44 0.0 0.0 0.00 0.00 0.00 66 1016.1
20260510023329 11 51 0.0 0.0 0.00 0.00 0.00 65 1016.0
20260510022828 12 45 0.0 0.0 0.00 0.00 0.00 65 1015.8
20260510022328 12 79 0.0 0.0 0.00 0.00 0.00 65 1016.0
20260510021328 12 57 0.0 0.0 0.00 0.00 0.00 64 1015.8
20260510015828 12 65 0.0 0.0 0.00 0.00 0.00 63 1015.8
20260510015328 12 40 0.0 0.0 0.00 0.00 0.00 63 1015.8
20260510014828 12 72 0.0 0.0 0.00 0.00 0.00 63 1015.8
20260510013328 12 55 0.0 0.0 0.00 0.00 0.00 61 1015.8
20260510012827 12 50 0.0 0.0 0.00 0.00 0.00 61 1015.8
20260510012327 12 40 0.0 0.0 0.00 0.00 0.00 60 1015.8
20260510011827 12 53 0.0 0.0 0.00 0.00 0.00 60 1016.0
20260510010828 12 50 0.0 0.0 0.00 0.00 0.00 59 1016.0
20260510005826 12 102 0.0 0.0 0.00 0.00 0.00 58 1016.0
20260510004826 13 31 0.0 0.0 0.00 0.00 0.00 58 1015.9
20260510003326 13 46 0.0 0.0 0.00 0.00 0.00 56 1016.0
20260510002825 13 44 0.0 0.0 0.00 0.00 0.00 56 1015.9
20260510002325 13 43 0.0 0.0 0.00 0.00 0.00 56 1016.0
20260510001825 13 25 0.0 0.0 0.00 0.00 0.00 55 1015.9
20260509234325 14 51 0.0 0.0 0.00 0.00 0.00 53 1016.0
20260509233825 14 31 0.0 0.0 0.00 0.00 0.00 53 1015.9
20260509233325 14 67 0.0 0.0 0.00 0.00 0.00 53 1015.9
20260509232824 14 47 0.0 0.0 0.00 0.00 0.00 53 1016.0
20260509231824 14 68 0.0 0.0 0.00 0.00 0.00 54 1015.8
20260509231324 14 102 0.0 0.0 0.00 0.00 0.00 53 1015.7
20260509230833 14 66 0.0 0.0 0.00 0.00 0.00 53 1015.7
20260509225825 14 73 0.0 0.0 0.00 0.00 0.00 54 1015.7
20260509225324 15 59 0.0 0.0 0.00 0.00 0.00 54 1015.7
20260509224825 15 55 0.0 0.0 0.00 0.00 0.00 54 1015.6
20260509224323 15 60 0.0 0.0 0.00 0.00 0.00 54 1015.6
20260509223324 15 54 0.0 0.0 0.00 0.00 0.00 54 1015.6
20260509222323 15 44 0.0 0.0 0.00 0.00 0.00 54 1015.5
20260509220823 15 45 0.0 0.0 0.00 0.00 0.00 56 1015.4
20260509220322 15 57 0.0 0.0 0.00 0.00 0.00 58 1015.4
20260509215322 15 51 0.0 0.0 0.00 0.00 0.00 57 1015.5
20260509213322 16 52 0.0 0.0 0.00 0.00 0.00 62 1015.4
20260509205821 16 49 0.0 0.0 0.00 0.00 0.00 62 1015.3
20260509204821 16 88 0.0 0.0 0.00 0.00 0.00 62 1015.0
20260509204321 16 63 0.0 0.0 0.00 0.00 0.00 63 1015.0
20260509203820 16 48 0.0 0.0 0.00 0.00 0.00 63 1014.9
20260509202321 17 38 0.0 0.0 0.00 0.00 0.00 64 1014.9
20260509201321 17 9 0.0 0.0 0.00 0.00 0.00 65 1014.7
20260509200821 17 9 0.0 0.0 0.00 0.00 0.00 64 1014.7
20260509200320 17 9 0.0 0.0 0.00 0.00 0.00 64 1014.7
20260509195820 17 9 0.0 0.0 0.00 0.00 0.00 64 1014.7
20260509195320 17 9 0.0 0.0 0.00 0.00 0.00 64 1014.7
20260509194820 17 338 0.0 0.0 0.00 0.00 0.00 64 1014.6
20260509193319 18 338 0.0 0.0 0.00 0.00 0.00 62 1014.4
20260509191319 18 337 0.0 0.0 0.00 0.00 0.00 62 1014.4
20260509190819 18 333 0.0 0.0 0.00 0.00 0.00 61 1014.3